Location: Casteau
(50.5142°N, 4.0161°E)
Time: 01:37:48
(UTC+00:00)

Resurs 01 Rocket - Pass Details

Date: 18 September 2020
Orbit: 633 x 645 km, 98.0° (Epoch: 24 October)

Event Time Altitude Azimuth Distance (km) Brightness Sun altitude
Exits shadow 19:19:15 24° 104° (ESE) 1,340 2.7 -14.6°
Maximum altitude 19:20:57 32° 65° (ENE) 1,117 2.5 -14.9°
Drops below altitude 10° 19:24:54 10° 3° (N) 2,054 4.5 -15.5°
Sets 19:27:17 0° 354° (N) 2,967 5.5 -15.8°
